Tracking 19281 objects as of 17-Nov-2018
HD Live streaming from Space Station
objects crossing your sky now

LEMUR 2 ROBMOORE

Track LEMUR 2 ROBMOORE now!
10-day predictions
LEMUR 2 ROBMOORE is classified as:


NORAD ID: 42754
Int'l Code: 2017-019D
Perigee: 477.3 km
Apogee: 491.3 km
Inclination: 51.6 °
Period: 94.1 minutes
Semi major axis: 6855 km
RCS: Unknown
Launch date: April 18, 2017
Source: United States (US)
Launch site: AIR FORCE EASTERN TEST RANGE (AFETR)
aabbcc
Your satellite tracking list
Your tracking list is empty




NASA's NSSDC Master Catalog

Two Line Element Set (TLE):
1 42754U 17019D   18320.80405256  .00002619  00000-0  10248-3 0  9990
2 42754  51.6404  77.8034 0010221  39.2836 320.8883 15.29537305 80448
Source of the keplerian elements: AFSPC